Time,TemperatureF,DewpointF,PressureIn,WindDirection,WindDirectionDegrees,WindSpeedMPH,WindSpeedGustMPH,Humidity,HourlyPrecipIn,Conditions,Clouds,dailyrainin,SoftwareType,DateUTC
2013-09-08 00:01:00,71.9,62.4,29.96,South,174,2.0,2.0,72,0.00,,,0.00,VWS V14.01,2013-09-08 05:01:00,
2013-09-08 00:07:00,71.7,62.2,29.96,South,171,1.0,3.0,72,0.00,,,0.00,VWS V14.01,2013-09-08 05:07:00,
2013-09-08 00:12:00,71.6,62.5,29.96,SE,138,0.0,3.0,73,0.00,,,0.00,VWS V14.01,2013-09-08 05:12:00,
2013-09-08 00:17:00,71.5,62.4,29.96,NNE,29,0.0,3.0,73,0.00,,,0.00,VWS V14.01,2013-09-08 05:17:00,
2013-09-08 00:22:00,71.3,62.2,29.96,ENE,78,0.0,3.0,73,0.00,,,0.00,VWS V14.01,2013-09-08 05:22:00,
2013-09-08 00:27:00,71.2,62.5,29.96,ESE,122,1.0,3.0,74,0.00,,,0.00,VWS V14.01,2013-09-08 05:27:00,
2013-09-08 00:32:00,71.0,62.3,29.97,ESE,120,2.0,3.0,74,0.00,,,0.00,VWS V14.01,2013-09-08 05:32:00,
2013-09-08 00:37:00,70.9,62.6,29.97,ENE,67,3.0,7.0,75,0.00,,,0.00,VWS V14.01,2013-09-08 05:37:00,
2013-09-08 00:42:00,70.7,62.8,29.97,ENE,64,0.0,7.0,76,0.00,,,0.00,VWS V14.01,2013-09-08 05:42:00,
2013-09-08 00:47:00,70.6,62.7,29.97,East,84,2.0,7.0,76,0.00,,,0.00,VWS V14.01,2013-09-08 05:47:00,
2013-09-08 00:52:00,70.4,62.8,29.97,ESE,120,1.0,7.0,77,0.00,,,0.00,VWS V14.01,2013-09-08 05:52:00,
2013-09-08 00:57:00,70.3,62.8,29.97,ENE,64,2.0,7.0,77,0.00,,,0.00,VWS V14.01,2013-09-08 05:57:00,
2013-09-08 01:02:00,70.2,62.7,29.97,ESE,108,1.0,1.0,77,0.00,,,0.00,VWS V14.01,2013-09-08 06:02:00,
2013-09-08 01:07:00,70.0,62.8,29.97,East,79,0.0,1.0,78,0.00,,,0.00,VWS V14.01,2013-09-08 06:07:00,
2013-09-08 01:12:00,69.9,62.7,29.97,SSE,152,0.0,7.0,78,0.00,,,0.00,VWS V14.01,2013-09-08 06:12:00,
2013-09-08 01:18:00,69.7,62.5,29.97,East,100,0.0,7.0,78,0.00,,,0.00,VWS V14.01,2013-09-08 06:18:00,
2013-09-08 01:23:00,69.5,62.3,29.97,South,191,1.0,7.0,78,0.00,,,0.00,VWS V14.01,2013-09-08 06:23:00,
2013-09-08 01:28:00,69.5,62.3,29.97,East,89,0.0,7.0,78,0.00,,,0.00,VWS V14.01,2013-09-08 06:28:00,
2013-09-08 01:33:00,69.4,62.6,29.97,ENE,60,1.0,3.0,79,0.00,,,0.00,VWS V14.01,2013-09-08 06:33:00,
2013-09-08 01:38:00,69.2,62.4,29.97,SE,133,3.0,7.0,79,0.00,,,0.00,VWS V14.01,2013-09-08 06:38:00,
2013-09-08 01:43:00,69.1,62.3,29.97,NNW,347,1.0,7.0,79,0.00,,,0.00,VWS V14.01,2013-09-08 06:43:00,
2013-09-08 01:48:00,68.9,62.5,29.97,SE,138,1.0,7.0,80,0.00,,,0.00,VWS V14.01,2013-09-08 06:48:00,
2013-09-08 01:53:00,68.8,62.4,29.98,West,278,0.0,7.0,80,0.00,,,0.00,VWS V14.01,2013-09-08 06:53:00,
2013-09-08 01:58:00,68.8,62.7,29.98,West,278,1.0,7.0,81,0.00,,,0.00,VWS V14.01,2013-09-08 06:58:00,
2013-09-08 02:03:00,68.6,62.5,29.98,ESE,110,2.0,7.0,81,0.00,,,0.00,VWS V14.01,2013-09-08 07:03:00,
2013-09-08 02:08:00,68.5,62.5,29.97,North,359,0.0,7.0,81,0.00,,,0.00,VWS V14.01,2013-09-08 07:08:00,
2013-09-08 02:13:00,68.4,62.3,29.97,NNE,21,0.0,7.0,81,0.00,,,0.00,VWS V14.01,2013-09-08 07:13:00,
2013-09-08 02:18:00,68.3,62.2,29.97,NE,44,1.0,7.0,81,0.00,,,0.00,VWS V14.01,2013-09-08 07:18:00,
2013-09-08 02:23:00,68.2,62.2,29.97,ESE,114,0.0,8.0,81,0.00,,,0.00,VWS V14.01,2013-09-08 07:23:00,
2013-09-08 02:28:00,68.1,62.4,29.97,South,172,1.0,8.0,82,0.00,,,0.00,VWS V14.01,2013-09-08 07:28:00,
2013-09-08 02:33:00,67.9,62.2,29.97,SE,127,1.0,7.0,82,0.00,,,0.00,VWS V14.01,2013-09-08 07:33:00,
2013-09-08 02:38:00,67.8,62.1,29.97,SE,133,1.0,7.0,82,0.00,,,0.00,VWS V14.01,2013-09-08 07:38:00,
2013-09-08 02:43:00,67.7,62.0,29.97,ENE,67,0.0,7.0,82,0.00,,,0.00,VWS V14.01,2013-09-08 07:43:00,
2013-09-08 02:49:00,67.6,62.3,29.97,SE,124,1.0,7.0,83,0.00,,,0.00,VWS V14.01,2013-09-08 07:49:00,
2013-09-08 02:54:00,67.5,62.2,29.97,SE,127,1.0,7.0,83,0.00,,,0.00,VWS V14.01,2013-09-08 07:54:00,
2013-09-08 02:59:00,67.4,62.1,29.97,ESE,110,0.0,7.0,83,0.00,,,0.00,VWS V14.01,2013-09-08 07:59:00,
2013-09-08 03:04:00,67.3,62.0,29.97,ESE,104,0.0,3.0,83,0.00,,,0.00,VWS V14.01,2013-09-08 08:04:00,
2013-09-08 03:09:00,67.2,61.9,29.97,ESE,123,4.0,4.0,83,0.00,,,0.00,VWS V14.01,2013-09-08 08:09:00,
2013-09-08 03:14:00,67.1,61.8,29.97,West,276,0.0,7.0,83,0.00,,,0.00,VWS V14.01,2013-09-08 08:14:00,
2013-09-08 03:19:00,67.0,61.7,29.97,ESE,116,0.0,7.0,83,0.00,,,0.00,VWS V14.01,2013-09-08 08:19:00,
2013-09-08 03:24:00,66.8,61.5,29.97,ESE,105,2.0,7.0,83,0.00,,,0.00,VWS V14.01,2013-09-08 08:24:00,
2013-09-08 04:01:00,66.1,60.5,29.97,West,277,1.0,3.0,82,0.00,,,0.00,VWS V14.01,2013-09-08 09:01:00,
2013-09-08 04:06:00,66.1,60.5,29.97,SE,139,1.0,4.0,82,0.00,,,0.00,VWS V14.01,2013-09-08 09:06:00,
2013-09-08 04:11:00,65.9,60.3,29.97,NNE,21,0.0,4.0,82,0.00,,,0.00,VWS V14.01,2013-09-08 09:11:00,
2013-09-08 04:16:00,65.8,59.8,29.97,ESE,108,1.0,7.0,81,0.00,,,0.00,VWS V14.01,2013-09-08 09:16:00,
2013-09-08 04:21:00,65.6,59.6,29.97,ESE,104,2.0,10.0,81,0.00,,,0.00,VWS V14.01,2013-09-08 09:21:00,
2013-09-08 04:26:00,65.5,59.5,29.96,West,270,2.0,10.0,81,0.00,,,0.00,VWS V14.01,2013-09-08 09:26:00,
2013-09-08 04:31:00,65.4,59.4,29.96,SE,126,2.0,4.0,81,0.00,,,0.00,VWS V14.01,2013-09-08 09:31:00,
2013-09-08 04:36:00,65.4,59.4,29.96,SE,137,0.0,4.0,81,0.00,,,0.00,VWS V14.01,2013-09-08 09:36:00,
2013-09-08 04:41:00,65.4,59.4,29.96,ENE,70,1.0,7.0,81,0.00,,,0.00,VWS V14.01,2013-09-08 09:41:00,
2013-09-08 04:46:00,65.4,59.4,29.96,ENE,78,1.0,7.0,81,0.00,,,0.00,VWS V14.01,2013-09-08 09:46:00,
2013-09-08 04:51:00,65.3,59.3,29.96,NE,51,0.0,10.0,81,0.00,,,0.00,VWS V14.01,2013-09-08 09:51:00,
2013-09-08 04:56:00,65.4,59.1,29.96,SE,140,1.0,10.0,80,0.00,,,0.00,VWS V14.01,2013-09-08 09:56:00,
2013-09-08 05:02:00,65.4,59.1,29.96,South,175,0.0,1.0,80,0.00,,,0.00,VWS V14.01,2013-09-08 10:02:00,
2013-09-08 05:07:00,65.4,59.4,29.96,North,354,0.0,5.0,81,0.00,,,0.00,VWS V14.01,2013-09-08 10:07:00,
2013-09-08 05:12:00,65.4,59.4,29.96,ESE,102,3.0,6.0,81,0.00,,,0.00,VWS V14.01,2013-09-08 10:12:00,
2013-09-08 05:17:00,65.3,59.0,29.96,NW,320,1.0,6.0,80,0.00,,,0.00,VWS V14.01,2013-09-08 10:17:00,
2013-09-08 05:22:00,65.4,59.1,29.96,SSE,158,2.0,7.0,80,0.00,,,0.00,VWS V14.01,2013-09-08 10:22:00,
2013-09-08 05:27:00,65.4,59.1,29.96,NNW,343,2.0,7.0,80,0.00,,,0.00,VWS V14.01,2013-09-08 10:27:00,
2013-09-08 05:32:00,65.3,59.0,29.97,ESE,114,1.0,5.0,80,0.00,,,0.00,VWS V14.01,2013-09-08 10:32:00,
2013-09-08 05:37:00,65.4,59.1,29.97,South,187,0.0,9.0,80,0.00,,,0.00,VWS V14.01,2013-09-08 10:37:00,
2013-09-08 05:42:00,65.3,59.0,29.97,SSE,156,1.0,9.0,80,0.00,,,0.00,VWS V14.01,2013-09-08 10:42:00,
2013-09-08 05:47:00,65.3,58.6,29.97,East,101,2.0,9.0,79,0.00,,,0.00,VWS V14.01,2013-09-08 10:47:00,
2013-09-08 05:52:00,65.4,58.7,29.97,North,354,0.0,9.0,79,0.00,,,0.00,VWS V14.01,2013-09-08 10:52:00,
2013-09-08 05:57:00,65.4,58.7,29.97,WNW,291,0.0,9.0,79,0.00,,,0.00,VWS V14.01,2013-09-08 10:57:00,
2013-09-08 06:02:00,65.4,58.7,29.97,East,79,0.0,2.0,79,0.00,,,0.00,VWS V14.01,2013-09-08 11:02:00,
2013-09-08 06:07:00,65.3,58.3,29.97,SSE,167,0.0,4.0,78,0.00,,,0.00,VWS V14.01,2013-09-08 11:07:00,
2013-09-08 06:12:00,65.3,58.6,29.97,East,93,0.0,4.0,79,0.00,,,0.00,VWS V14.01,2013-09-08 11:12:00,
2013-09-08 06:17:00,65.3,58.6,29.97,NNE,27,0.0,6.0,79,0.00,,,0.00,VWS V14.01,2013-09-08 11:17:00,
2013-09-08 06:22:00,65.3,58.6,29.97,SSE,156,1.0,6.0,79,0.00,,,0.00,VWS V14.01,2013-09-08 11:22:00,
2013-09-08 06:27:00,65.4,58.7,29.97,SE,124,1.0,6.0,79,0.00,,,0.00,VWS V14.01,2013-09-08 11:27:00,
2013-09-08 06:32:00,65.4,58.4,29.97,SSE,152,1.0,4.0,78,0.00,,,0.00,VWS V14.01,2013-09-08 11:32:00,
2013-09-08 06:37:00,65.5,58.8,29.97,SE,131,3.0,7.0,79,0.00,,,0.00,VWS V14.01,2013-09-08 11:37:00,
2013-09-08 06:42:00,65.4,58.7,29.97,SE,131,0.0,7.0,79,0.00,,,0.00,VWS V14.01,2013-09-08 11:42:00,
2013-09-08 06:47:00,65.5,58.8,29.97,South,174,1.0,7.0,79,0.00,,,0.00,VWS V14.01,2013-09-08 11:47:00,
2013-09-08 06:53:00,65.5,58.5,29.97,ENE,76,0.0,7.0,78,0.00,,,0.00,VWS V14.01,2013-09-08 11:53:00,
2013-09-08 06:58:00,65.5,58.8,29.97,SE,146,0.0,8.0,79,0.00,,,0.00,VWS V14.01,2013-09-08 11:58:00,
2013-09-08 07:03:00,65.5,58.5,29.97,SE,124,1.0,5.0,78,0.00,,,0.00,VWS V14.01,2013-09-08 12:03:00,
2013-09-08 07:08:00,65.5,58.5,29.97,ESE,118,5.0,5.0,78,0.00,,,0.00,VWS V14.01,2013-09-08 12:08:00,
2013-09-08 07:13:00,65.5,58.5,29.97,SE,145,0.0,9.0,78,0.00,,,0.00,VWS V14.01,2013-09-08 12:13:00,
2013-09-08 07:18:00,65.6,58.6,29.97,ESE,111,4.0,9.0,78,0.00,,,0.00,VWS V14.01,2013-09-08 12:18:00,
2013-09-08 07:23:00,65.6,58.9,29.97,SE,139,3.0,9.0,79,0.00,,,0.00,VWS V14.01,2013-09-08 12:23:00,
2013-09-08 07:28:00,65.6,58.6,29.97,East,81,5.0,9.0,78,0.00,,,0.00,VWS V14.01,2013-09-08 12:28:00,
2013-09-08 07:33:00,65.7,58.7,29.98,SE,135,2.0,4.0,78,0.00,,,0.00,VWS V14.01,2013-09-08 12:33:00,
2013-09-08 07:38:00,65.7,58.7,29.98,SSE,155,0.0,4.0,78,0.00,,,0.00,VWS V14.01,2013-09-08 12:38:00,
2013-09-08 07:43:00,65.8,59.1,29.98,ESE,122,1.0,4.0,79,0.00,,,0.00,VWS V14.01,2013-09-08 12:43:00,
2013-09-08 07:48:00,65.8,59.1,29.98,East,80,2.0,4.0,79,0.00,,,0.00,VWS V14.01,2013-09-08 12:48:00,
2013-09-08 07:53:00,65.8,58.8,29.99,SE,135,0.0,6.0,78,0.00,,,0.00,VWS V14.01,2013-09-08 12:53:00,
2013-09-08 07:58:00,65.9,59.2,29.99,ESE,115,0.0,6.0,79,0.00,,,0.00,VWS V14.01,2013-09-08 12:58:00,
2013-09-08 08:03:00,66.0,59.3,29.99,SE,124,1.0,6.0,79,0.00,,,0.00,VWS V14.01,2013-09-08 13:03:00,
2013-09-08 08:08:00,66.1,59.8,29.99,SE,127,0.0,6.0,80,0.00,,,0.00,VWS V14.01,2013-09-08 13:08:00,
2013-09-08 08:13:00,66.1,59.4,29.99,SE,125,0.0,6.0,79,0.00,,,0.00,VWS V14.01,2013-09-08 13:13:00,
2013-09-08 08:18:00,66.2,59.5,30.00,SE,146,2.0,7.0,79,0.00,,,0.00,VWS V14.01,2013-09-08 13:18:00,
2013-09-08 08:23:00,66.3,60.3,29.99,WNW,287,1.0,7.0,81,0.00,,,0.00,VWS V14.01,2013-09-08 13:23:00,
2013-09-08 08:28:00,66.4,59.7,29.99,SE,139,2.0,7.0,79,0.00,,,0.00,VWS V14.01,2013-09-08 13:28:00,
2013-09-08 08:33:00,66.5,59.4,29.99,SW,223,0.0,5.0,78,0.00,,,0.00,VWS V14.01,2013-09-08 13:33:00,
2013-09-08 08:38:00,66.5,59.1,29.99,SE,146,0.0,5.0,77,0.00,,,0.00,VWS V14.01,2013-09-08 13:38:00,
2013-09-08 08:44:00,66.4,59.0,29.99,ESE,116,1.0,5.0,77,0.00,,,0.00,VWS V14.01,2013-09-08 13:44:00,
2013-09-08 08:49:00,66.3,59.2,29.99,ENE,76,0.0,7.0,78,0.00,,,0.00,VWS V14.01,2013-09-08 13:49:00,
2013-09-08 08:54:00,66.3,59.2,29.99,East,100,2.0,11.0,78,0.00,,,0.00,VWS V14.01,2013-09-08 13:54:00,
2013-09-08 08:59:00,66.3,59.2,29.98,SE,130,3.0,11.0,78,0.00,,,0.00,VWS V14.01,2013-09-08 13:59:00,
2013-09-08 09:04:00,66.3,59.2,29.98,SSE,151,0.0,4.0,78,0.00,,,0.00,VWS V14.01,2013-09-08 14:04:00,
2013-09-08 09:09:00,66.4,59.3,29.98,ESE,102,2.0,8.0,78,0.00,,,0.00,VWS V14.01,2013-09-08 14:09:00,
2013-09-08 09:14:00,66.3,59.2,29.98,ESE,110,4.0,8.0,78,0.00,,,0.00,VWS V14.01,2013-09-08 14:14:00,
2013-09-08 09:19:00,66.4,59.3,29.99,SE,132,6.0,8.0,78,0.00,,,0.00,VWS V14.01,2013-09-08 14:19:00,
2013-09-08 09:24:00,66.5,59.8,29.98,SW,216,1.0,8.0,79,0.00,,,0.00,VWS V14.01,2013-09-08 14:24:00,
2013-09-08 09:29:00,66.6,59.9,29.99,SE,129,1.0,8.0,79,0.00,,,0.00,VWS V14.01,2013-09-08 14:29:00,
2013-09-08 09:34:00,66.6,60.2,29.99,ESE,122,2.0,6.0,80,0.00,,,0.00,VWS V14.01,2013-09-08 14:34:00,
2013-09-08 09:39:00,66.7,60.0,29.99,ESE,110,0.0,8.0,79,0.00,,,0.00,VWS V14.01,2013-09-08 14:39:00,
2013-09-08 09:44:00,66.8,60.4,29.99,SE,139,2.0,8.0,80,0.00,,,0.00,VWS V14.01,2013-09-08 14:44:00,
2013-09-08 09:49:00,66.9,60.9,29.99,ESE,118,1.0,8.0,81,0.00,,,0.00,VWS V14.01,2013-09-08 14:49:00,
2013-09-08 09:54:00,67.2,60.8,29.99,SE,129,1.0,8.0,80,0.00,,,0.00,VWS V14.01,2013-09-08 14:54:00,
2013-09-08 09:59:00,67.5,60.4,29.99,ENE,74,3.0,8.0,78,0.00,,,0.00,VWS V14.01,2013-09-08 14:59:00,
2013-09-08 10:05:00,67.7,61.0,29.98,ESE,110,2.0,7.0,79,0.00,,,0.00,VWS V14.01,2013-09-08 15:05:00,
2013-09-08 10:10:00,67.9,61.2,29.98,East,99,3.0,8.0,79,0.00,,,0.00,VWS V14.01,2013-09-08 15:10:00,
2013-09-08 10:15:00,67.9,60.8,29.98,ESE,122,2.0,8.0,78,0.00,,,0.00,VWS V14.01,2013-09-08 15:15:00,
2013-09-08 10:20:00,67.7,61.0,29.98,SE,135,3.0,8.0,79,0.00,,,0.00,VWS V14.01,2013-09-08 15:20:00,
2013-09-08 10:25:00,67.5,61.1,29.98,ESE,120,1.0,11.0,80,0.00,,,0.00,VWS V14.01,2013-09-08 15:25:00,
2013-09-08 10:30:00,67.4,60.7,29.98,ESE,121,5.0,11.0,79,0.00,,,0.00,VWS V14.01,2013-09-08 15:30:00,
2013-09-08 10:35:00,67.4,61.0,29.98,SSE,154,3.0,11.0,80,0.00,,,0.00,VWS V14.01,2013-09-08 15:35:00,
2013-09-08 10:40:00,67.4,61.0,29.98,ESE,114,1.0,11.0,80,0.00,,,0.00,VWS V14.01,2013-09-08 15:40:00,
2013-09-08 10:45:00,67.6,61.6,29.98,East,89,0.0,11.0,81,0.00,,,0.00,VWS V14.01,2013-09-08 15:45:00,
2013-09-08 10:50:00,67.8,61.4,29.98,SSE,152,4.0,11.0,80,0.00,,,0.00,VWS V14.01,2013-09-08 15:50:00,
2013-09-08 10:55:00,67.9,61.5,29.98,SE,133,3.0,11.0,80,0.00,,,0.00,VWS V14.01,2013-09-08 15:55:00,
2013-09-08 11:00:00,68.0,62.0,29.98,WSW,256,1.0,1.0,81,0.00,,,0.00,VWS V14.01,2013-09-08 16:00:00,
2013-09-08 11:05:00,68.1,62.1,29.98,East,94,1.0,7.0,81,0.00,,,0.00,VWS V14.01,2013-09-08 16:05:00,
2013-09-08 11:10:00,68.1,62.1,29.98,SE,134,3.0,8.0,81,0.00,,,0.00,VWS V14.01,2013-09-08 16:10:00,
2013-09-08 11:15:00,68.1,61.7,29.98,ESE,120,7.0,10.0,80,0.00,,,0.00,VWS V14.01,2013-09-08 16:15:00,
2013-09-08 11:20:00,68.1,62.1,29.98,East,81,3.0,10.0,81,0.00,,,0.00,VWS V14.01,2013-09-08 16:20:00,
2013-09-08 11:26:00,68.2,62.2,29.98,ENE,64,1.0,10.0,81,0.00,,,0.00,VWS V14.01,2013-09-08 16:26:00,
2013-09-08 11:31:00,68.1,62.1,29.98,ESE,114,3.0,7.0,81,0.00,,,0.00,VWS V14.01,2013-09-08 16:31:00,
2013-09-08 11:36:00,68.1,61.7,29.98,ESE,108,1.0,9.0,80,0.00,,,0.00,VWS V14.01,2013-09-08 16:36:00,
2013-09-08 11:41:00,68.1,62.1,29.98,SE,131,1.0,9.0,81,0.00,,,0.00,VWS V14.01,2013-09-08 16:41:00,
2013-09-08 11:46:00,68.2,62.5,29.98,ESE,111,5.0,9.0,82,0.00,,,0.00,VWS V14.01,2013-09-08 16:46:00,
2013-09-08 11:51:00,68.6,62.2,29.97,ESE,116,3.0,9.0,80,0.00,,,0.00,VWS V14.01,2013-09-08 16:51:00,
2013-09-08 11:56:00,68.9,63.2,29.98,ESE,106,0.0,9.0,82,0.00,,,0.00,VWS V14.01,2013-09-08 16:56:00,
2013-09-08 12:01:00,69.3,62.9,29.98,ESE,117,0.0,2.0,80,0.00,,,0.00,VWS V14.01,2013-09-08 17:01:00,
2013-09-08 12:06:00,69.8,63.0,29.98,South,175,1.0,7.0,79,0.00,,,0.00,VWS V14.01,2013-09-08 17:06:00,
2013-09-08 12:11:00,70.3,63.1,29.97,SE,128,5.0,9.0,78,0.00,,,0.00,VWS V14.01,2013-09-08 17:11:00,
2013-09-08 12:16:00,70.6,63.0,29.97,SE,141,1.0,9.0,77,0.00,,,0.00,VWS V14.01,2013-09-08 17:16:00,
2013-09-08 12:21:00,70.8,63.2,29.97,ESE,116,3.0,9.0,77,0.00,,,0.00,VWS V14.01,2013-09-08 17:21:00,
2013-09-08 12:26:00,70.7,63.5,29.96,East,96,1.0,9.0,78,0.00,,,0.00,VWS V14.01,2013-09-08 17:26:00,
2013-09-08 12:31:00,70.8,64.3,29.97,SE,133,1.0,1.0,80,0.00,,,0.00,VWS V14.01,2013-09-08 17:31:00,
2013-09-08 12:37:00,70.8,64.0,29.97,SW,228,2.0,4.0,79,0.00,,,0.00,VWS V14.01,2013-09-08 17:37:00,
2013-09-08 12:42:00,70.9,64.1,29.97,ESE,108,0.0,5.0,79,0.00,,,0.00,VWS V14.01,2013-09-08 17:42:00,
2013-09-08 12:47:00,71.0,64.2,29.97,SE,141,4.0,5.0,79,0.00,,,0.00,VWS V14.01,2013-09-08 17:47:00,
2013-09-08 12:52:00,71.3,64.8,29.97,SE,130,1.0,5.0,80,0.00,,,0.00,VWS V14.01,2013-09-08 17:52:00,
2013-09-08 12:57:00,71.6,64.0,29.96,ESE,123,0.0,5.0,77,0.00,,,0.00,VWS V14.01,2013-09-08 17:57:00,
2013-09-08 13:02:00,71.7,64.1,29.96,ESE,113,0.0,5.0,77,0.00,,,0.00,VWS V14.01,2013-09-08 18:02:00,
2013-09-08 13:07:00,71.6,64.0,29.96,SSE,165,0.0,5.0,77,0.00,,,0.00,VWS V14.01,2013-09-08 18:07:00,
2013-09-08 13:12:00,71.5,64.3,29.94,SE,142,4.0,5.0,78,0.00,,,0.00,VWS V14.01,2013-09-08 18:12:00,
2013-09-08 13:17:00,71.4,64.2,29.92,East,89,6.0,10.0,78,0.00,,,0.00,VWS V14.01,2013-09-08 18:17:00,
2013-09-08 13:22:00,71.3,63.7,29.92,SSE,158,7.0,10.0,77,0.00,,,0.00,VWS V14.01,2013-09-08 18:22:00,
2013-09-08 13:27:00,71.4,64.6,29.94,SE,134,5.0,10.0,79,0.00,,,0.00,VWS V14.01,2013-09-08 18:27:00,
2013-09-08 13:32:00,71.5,64.3,29.95,SE,127,0.0,1.0,78,0.00,,,0.00,VWS V14.01,2013-09-08 18:32:00,
2013-09-08 13:37:00,71.8,64.6,29.95,ESE,110,2.0,5.0,78,0.00,,,0.00,VWS V14.01,2013-09-08 18:37:00,
2013-09-08 13:42:00,72.1,64.1,29.95,SE,125,2.0,5.0,76,0.00,,,0.00,VWS V14.01,2013-09-08 18:42:00,
2013-09-08 13:47:00,72.4,64.4,29.95,ESE,121,4.0,5.0,76,0.00,,,0.00,VWS V14.01,2013-09-08 18:47:00,
2013-09-08 13:52:00,72.4,63.7,29.93,ESE,120,1.0,6.0,74,0.00,,,0.00,VWS V14.01,2013-09-08 18:52:00,
2013-09-08 13:58:00,72.5,63.8,29.92,ESE,105,2.0,6.0,74,0.00,,,0.00,VWS V14.01,2013-09-08 18:58:00,
2013-09-08 14:03:00,72.7,63.9,29.94,ESE,102,0.0,4.0,74,0.00,,,0.00,VWS V14.01,2013-09-08 19:03:00,
2013-09-08 14:08:00,72.8,63.7,29.94,SE,139,2.0,7.0,73,0.00,,,0.00,VWS V14.01,2013-09-08 19:08:00,
2013-09-08 14:13:00,73.1,63.9,29.93,SE,141,1.0,7.0,73,0.00,,,0.00,VWS V14.01,2013-09-08 19:13:00,
2013-09-08 14:18:00,73.1,63.2,29.92,SE,131,9.0,9.0,71,0.00,,,0.00,VWS V14.01,2013-09-08 19:18:00,
2013-09-08 14:23:00,73.0,63.8,29.92,East,100,6.0,9.0,73,0.00,,,0.00,VWS V14.01,2013-09-08 19:23:00,
2013-09-08 14:28:00,73.1,63.9,29.90,East,94,3.0,9.0,73,0.00,,,0.00,VWS V14.01,2013-09-08 19:28:00,
2013-09-08 14:33:00,73.0,63.5,29.90,SE,135,3.0,7.0,72,0.00,,,0.00,VWS V14.01,2013-09-08 19:33:00,
2013-09-08 14:38:00,72.9,63.8,29.90,ESE,118,1.0,7.0,73,0.00,,,0.00,VWS V14.01,2013-09-08 19:38:00,
2013-09-08 14:43:00,72.9,63.8,29.90,East,89,2.0,7.0,73,0.00,,,0.00,VWS V14.01,2013-09-08 19:43:00,
2013-09-08 14:48:00,73.0,64.2,29.90,ESE,102,4.0,7.0,74,0.00,,,0.00,VWS V14.01,2013-09-08 19:48:00,
2013-09-08 14:53:00,73.0,63.8,29.90,SSE,156,2.0,9.0,73,0.00,,,0.00,VWS V14.01,2013-09-08 19:53:00,
2013-09-08 14:58:00,73.1,63.5,29.89,SE,125,0.0,9.0,72,0.00,,,0.00,VWS V14.01,2013-09-08 19:58:00,
2013-09-08 15:03:00,73.1,63.5,29.89,SSE,161,1.0,7.0,72,0.00,,,0.00,VWS V14.01,2013-09-08 20:03:00,
2013-09-08 15:08:00,73.3,63.7,29.90,ESE,120,1.0,7.0,72,0.00,,,0.00,VWS V14.01,2013-09-08 20:08:00,
2013-09-08 15:13:00,73.5,64.3,29.90,ESE,109,2.0,7.0,73,0.00,,,0.00,VWS V14.01,2013-09-08 20:13:00,
2013-09-08 15:19:00,73.9,64.7,29.90,SE,141,0.0,7.0,73,0.00,,,0.00,VWS V14.01,2013-09-08 20:19:00,
2013-09-08 15:24:00,74.3,65.5,29.90,SE,131,2.0,7.0,74,0.00,,,0.00,VWS V14.01,2013-09-08 20:24:00,
2013-09-08 15:29:00,74.8,64.8,29.90,ESE,113,1.0,8.0,71,0.00,,,0.00,VWS V14.01,2013-09-08 20:29:00,
2013-09-08 15:34:00,75.0,64.6,29.89,ESE,104,0.0,7.0,70,0.00,,,0.00,VWS V14.01,2013-09-08 20:34:00,
2013-09-08 15:39:00,75.0,65.4,29.89,ENE,77,0.0,7.0,72,0.00,,,0.00,VWS V14.01,2013-09-08 20:39:00,
2013-09-08 15:44:00,75.3,65.3,29.89,SE,129,1.0,9.0,71,0.00,,,0.00,VWS V14.01,2013-09-08 20:44:00,
2013-09-08 15:49:00,75.6,65.5,29.88,East,89,2.0,9.0,71,0.00,,,0.00,VWS V14.01,2013-09-08 20:49:00,
2013-09-08 15:54:00,75.5,65.0,29.87,SE,136,3.0,9.0,70,0.00,,,0.00,VWS V14.01,2013-09-08 20:54:00,
2013-09-08 15:59:00,75.3,65.3,29.87,SE,126,2.0,9.0,71,0.00,,,0.00,VWS V14.01,2013-09-08 20:59:00,
2013-09-08 16:04:00,75.2,65.2,29.87,SE,131,4.0,7.0,71,0.00,,,0.00,VWS V14.01,2013-09-08 21:04:00,
2013-09-08 16:09:00,75.0,65.4,29.86,SSE,154,3.0,7.0,72,0.00,,,0.00,VWS V14.01,2013-09-08 21:09:00,
2013-09-08 16:14:00,74.9,65.3,29.86,ESE,112,5.0,7.0,72,0.00,,,0.00,VWS V14.01,2013-09-08 21:14:00,
2013-09-08 16:19:00,74.7,65.1,29.86,ESE,106,3.0,7.0,72,0.00,,,0.00,VWS V14.01,2013-09-08 21:19:00,
2013-09-08 16:24:00,74.6,65.4,29.86,ESE,108,3.0,7.0,73,0.00,,,0.00,VWS V14.01,2013-09-08 21:24:00,
2013-09-08 16:30:00,74.5,65.7,29.87,SE,146,2.0,7.0,74,0.00,,,0.00,VWS V14.01,2013-09-08 21:30:00,
2013-09-08 16:35:00,74.4,66.0,29.87,ESE,119,2.0,2.0,75,0.00,,,0.00,VWS V14.01,2013-09-08 21:35:00,
2013-09-08 16:40:00,74.4,66.0,29.88,SSE,148,0.0,5.0,75,0.00,,,0.00,VWS V14.01,2013-09-08 21:40:00,
2013-09-08 16:45:00,74.4,66.3,29.87,SE,135,1.0,5.0,76,0.00,,,0.00,VWS V14.01,2013-09-08 21:45:00,
2013-09-08 16:50:00,74.4,66.0,29.87,SE,127,1.0,5.0,75,0.00,,,0.00,VWS V14.01,2013-09-08 21:50:00,
2013-09-08 16:55:00,74.3,66.2,29.87,SE,127,0.0,5.0,76,0.00,,,0.00,VWS V14.01,2013-09-08 21:55:00,
2013-09-08 17:00:00,74.2,65.8,29.87,South,191,0.0,0.0,75,0.00,,,0.00,VWS V14.01,2013-09-08 22:00:00,
2013-09-08 17:05:00,74.1,65.7,29.87,SW,220,0.0,1.0,75,0.00,,,0.00,VWS V14.01,2013-09-08 22:05:00,
2013-09-08 17:10:00,74.0,65.6,29.87,SSE,148,0.0,2.0,75,0.00,,,0.00,VWS V14.01,2013-09-08 22:10:00,
2013-09-08 17:15:00,73.8,65.0,29.87,NNE,17,0.0,2.0,74,0.00,,,0.00,VWS V14.01,2013-09-08 22:15:00,
2013-09-08 17:20:00,73.7,64.9,29.87,South,174,1.0,2.0,74,0.00,,,0.00,VWS V14.01,2013-09-08 22:20:00,
2013-09-08 17:25:00,73.5,64.7,29.87,East,100,1.0,2.0,74,0.00,,,0.00,VWS V14.01,2013-09-08 22:25:00,
2013-09-08 17:30:00,73.4,65.0,29.87,East,97,0.0,0.0,75,0.00,,,0.00,VWS V14.01,2013-09-08 22:30:00,
2013-09-08 17:35:00,73.3,64.5,29.87,ESE,119,0.0,3.0,74,0.00,,,0.00,VWS V14.01,2013-09-08 22:35:00,
2013-09-08 17:41:00,73.0,64.2,29.87,SSE,152,0.0,5.0,74,0.00,,,0.00,VWS V14.01,2013-09-08 22:41:00,
2013-09-08 17:46:00,72.9,64.1,29.87,South,182,1.0,5.0,74,0.00,,,0.00,VWS V14.01,2013-09-08 22:46:00,
2013-09-08 17:51:00,72.8,64.4,29.87,East,94,1.0,5.0,75,0.00,,,0.00,VWS V14.01,2013-09-08 22:51:00,
2013-09-08 17:56:00,72.7,64.3,29.87,ESE,103,0.0,5.0,75,0.00,,,0.00,VWS V14.01,2013-09-08 22:56:00,
2013-09-08 18:01:00,72.6,64.2,29.86,North,8,0.0,0.0,75,0.00,,,0.00,VWS V14.01,2013-09-08 23:01:00,
2013-09-08 18:06:00,72.6,64.2,29.86,SSE,159,0.0,3.0,75,0.00,,,0.00,VWS V14.01,2013-09-08 23:06:00,
2013-09-08 18:11:00,72.5,64.1,29.86,SE,139,2.0,3.0,75,0.00,,,0.00,VWS V14.01,2013-09-08 23:11:00,
2013-09-08 18:16:00,72.4,64.0,29.86,SSE,160,3.0,5.0,75,0.00,,,0.00,VWS V14.01,2013-09-08 23:16:00,
2013-09-08 18:21:00,72.4,64.4,29.86,West,262,0.0,5.0,76,0.00,,,0.00,VWS V14.01,2013-09-08 23:21:00,
2013-09-08 18:26:00,72.4,64.4,29.86,ESE,119,0.0,5.0,76,0.00,,,0.00,VWS V14.01,2013-09-08 23:26:00,
2013-09-08 18:31:00,72.5,64.5,29.86,SE,128,0.0,0.0,76,0.00,,,0.00,VWS V14.01,2013-09-08 23:31:00,
2013-09-08 18:36:00,72.5,64.5,29.86,SSE,149,3.0,5.0,76,0.00,,,0.00,VWS V14.01,2013-09-08 23:36:00,
2013-09-08 18:41:00,72.5,64.5,29.86,East,85,0.0,5.0,76,0.00,,,0.00,VWS V14.01,2013-09-08 23:41:00,
2013-09-08 18:46:00,72.5,64.5,29.86,ESE,104,4.0,5.0,76,0.00,,,0.00,VWS V14.01,2013-09-08 23:46:00,
2013-09-08 18:52:00,72.5,64.5,29.86,SE,125,0.0,5.0,76,0.00,,,0.00,VWS V14.01,2013-09-08 23:52:00,
2013-09-08 18:57:00,72.5,64.9,29.86,SE,126,0.0,5.0,77,0.00,,,0.00,VWS V14.01,2013-09-08 23:57:00,
2013-09-08 19:02:00,72.4,64.8,29.86,ESE,122,3.0,7.0,77,0.00,,,0.00,VWS V14.01,2013-09-09 00:02:00,
2013-09-08 19:07:00,72.4,64.4,29.85,SE,138,2.0,7.0,76,0.00,,,0.00,VWS V14.01,2013-09-09 00:07:00,
2013-09-08 19:12:00,72.4,64.4,29.85,East,95,1.0,7.0,76,0.00,,,0.00,VWS V14.01,2013-09-09 00:12:00,
2013-09-08 19:17:00,72.4,64.4,29.85,South,179,1.0,7.0,76,0.00,,,0.00,VWS V14.01,2013-09-09 00:17:00,
2013-09-08 19:22:00,72.4,64.8,29.86,SE,127,1.0,7.0,77,0.00,,,0.00,VWS V14.01,2013-09-09 00:22:00,
2013-09-08 19:27:00,72.4,64.8,29.86,ESE,111,1.0,7.0,77,0.00,,,0.00,VWS V14.01,2013-09-09 00:27:00,
2013-09-08 19:32:00,72.3,64.7,29.86,SE,146,2.0,5.0,77,0.00,,,0.00,VWS V14.01,2013-09-09 00:32:00,
2013-09-08 19:37:00,72.3,64.7,29.86,ESE,122,1.0,5.0,77,0.00,,,0.00,VWS V14.01,2013-09-09 00:37:00,
2013-09-08 19:42:00,72.2,64.6,29.86,ESE,107,0.0,5.0,77,0.00,,,0.00,VWS V14.01,2013-09-09 00:42:00,
2013-09-08 19:47:00,72.2,64.6,29.86,SE,141,2.0,5.0,77,0.00,,,0.00,VWS V14.01,2013-09-09 00:47:00,
2013-09-08 19:52:00,72.2,64.6,29.86,ESE,113,3.0,7.0,77,0.00,,,0.00,VWS V14.01,2013-09-09 00:52:00,
2013-09-08 19:57:00,72.2,64.6,29.86,ESE,120,3.0,7.0,77,0.00,,,0.00,VWS V14.01,2013-09-09 00:57:00,
2013-09-08 20:03:00,72.2,65.0,29.86,ESE,113,1.0,2.0,78,0.00,,,0.00,VWS V14.01,2013-09-09 01:03:00,
2013-09-08 20:08:00,72.1,64.5,29.86,East,99,2.0,8.0,77,0.00,,,0.00,VWS V14.01,2013-09-09 01:08:00,
2013-09-08 20:13:00,72.1,64.5,29.86,ESE,120,2.0,8.0,77,0.00,,,0.00,VWS V14.01,2013-09-09 01:13:00,
2013-09-08 20:18:00,72.1,64.9,29.86,ESE,108,2.0,8.0,78,0.00,,,0.00,VWS V14.01,2013-09-09 01:18:00,
2013-09-08 20:23:00,72.1,64.9,29.86,East,93,1.0,8.0,78,0.00,,,0.00,VWS V14.01,2013-09-09 01:23:00,
2013-09-08 20:28:00,72.1,64.9,29.86,East,101,1.0,8.0,78,0.00,,,0.00,VWS V14.01,2013-09-09 01:28:00,
2013-09-08 20:33:00,72.1,64.9,29.86,East,81,5.0,6.0,78,0.00,,,0.00,VWS V14.01,2013-09-09 01:33:00,
2013-09-08 20:38:00,72.1,64.9,29.87,SE,131,0.0,6.0,78,0.00,,,0.00,VWS V14.01,2013-09-09 01:38:00,
2013-09-08 20:43:00,72.1,64.9,29.87,ESE,116,3.0,7.0,78,0.00,,,0.00,VWS V14.01,2013-09-09 01:43:00,
2013-09-08 20:48:00,72.1,64.9,29.86,ESE,123,3.0,7.0,78,0.00,,,0.00,VWS V14.01,2013-09-09 01:48:00,
2013-09-08 20:53:00,72.1,64.9,29.86,SE,126,1.0,7.0,78,0.00,,,0.00,VWS V14.01,2013-09-09 01:53:00,
2013-09-08 20:59:00,72.1,65.2,29.86,ESE,112,3.0,7.0,79,0.00,,,0.00,VWS V14.01,2013-09-09 01:59:00,
2013-09-08 21:04:00,72.1,65.2,29.86,ESE,116,0.0,4.0,79,0.00,,,0.00,VWS V14.01,2013-09-09 02:04:00,
2013-09-08 21:09:00,72.1,65.2,29.86,SE,143,3.0,7.0,79,0.00,,,0.00,VWS V14.01,2013-09-09 02:09:00,
2013-09-08 21:14:00,72.1,65.2,29.86,ESE,112,2.0,7.0,79,0.00,,,0.00,VWS V14.01,2013-09-09 02:14:00,
2013-09-08 21:19:00,72.1,65.2,29.86,SE,132,0.0,7.0,79,0.00,,,0.00,VWS V14.01,2013-09-09 02:19:00,
2013-09-08 21:24:00,72.1,65.6,29.86,SSE,148,2.0,7.0,80,0.00,,,0.00,VWS V14.01,2013-09-09 02:24:00,
2013-09-08 21:29:00,72.1,65.6,29.86,SE,129,2.0,7.0,80,0.00,,,0.00,VWS V14.01,2013-09-09 02:29:00,
2013-09-08 21:34:00,72.1,65.6,29.85,SSE,165,1.0,5.0,80,0.00,,,0.00,VWS V14.01,2013-09-09 02:34:00,
2013-09-08 21:39:00,72.1,65.6,29.85,East,95,1.0,5.0,80,0.00,,,0.00,VWS V14.01,2013-09-09 02:39:00,
2013-09-08 21:44:00,72.1,65.9,29.85,SSE,166,1.0,9.0,81,0.00,,,0.00,VWS V14.01,2013-09-09 02:44:00,
2013-09-08 21:49:00,72.0,65.9,29.85,SE,135,4.0,9.0,81,0.00,,,0.00,VWS V14.01,2013-09-09 02:49:00,
2013-09-08 21:54:00,71.9,65.4,29.85,ESE,106,3.0,9.0,80,0.00,,,0.00,VWS V14.01,2013-09-09 02:54:00,
2013-09-08 21:59:00,71.9,65.8,29.85,SSW,196,0.0,9.0,81,0.00,,,0.00,VWS V14.01,2013-09-09 02:59:00,
2013-09-08 22:04:00,71.8,65.3,29.85,ESE,118,4.0,9.0,80,0.00,,,0.00,VWS V14.01,2013-09-09 03:04:00,
2013-09-08 22:10:00,71.7,65.2,29.85,SSE,166,6.0,9.0,80,0.00,,,0.00,VWS V14.01,2013-09-09 03:10:00,
2013-09-08 22:15:00,71.6,65.5,29.85,SE,131,7.0,10.0,81,0.00,,,0.00,VWS V14.01,2013-09-09 03:15:00,
2013-09-08 22:20:00,71.4,65.3,29.85,ESE,102,1.0,10.0,81,0.00,,,0.00,VWS V14.01,2013-09-09 03:20:00,
2013-09-08 22:25:00,71.3,65.2,29.85,West,267,2.0,10.0,81,0.00,,,0.00,VWS V14.01,2013-09-09 03:25:00,
2013-09-08 22:30:00,71.2,65.1,29.85,South,171,0.0,10.0,81,0.00,,,0.00,VWS V14.01,2013-09-09 03:30:00,
2013-09-08 22:35:00,71.1,65.3,29.85,East,101,0.0,7.0,82,0.00,,,0.00,VWS V14.01,2013-09-09 03:35:00,
2013-09-08 22:40:00,70.9,65.1,29.85,SW,235,5.0,11.0,82,0.00,,,0.00,VWS V14.01,2013-09-09 03:40:00,
2013-09-08 22:45:00,70.8,65.4,29.85,East,98,6.0,11.0,83,0.00,,,0.00,VWS V14.01,2013-09-09 03:45:00,
2013-09-08 22:50:00,70.7,65.3,29.85,ESE,108,2.0,11.0,83,0.00,,,0.00,VWS V14.01,2013-09-09 03:50:00,
2013-09-08 22:55:00,70.7,65.3,29.85,SSE,149,3.0,11.0,83,0.00,,,0.00,VWS V14.01,2013-09-09 03:55:00,
2013-09-08 23:00:00,70.6,65.2,29.85,SE,126,2.0,4.0,83,0.00,,,0.00,VWS V14.01,2013-09-09 04:00:00,
2013-09-08 23:01:00,70.6,65.2,29.85,ESE,114,3.0,5.0,83,0.00,,,0.00,VWS V14.01,2013-09-09 04:01:00,
2013-09-08 23:02:00,70.6,65.2,29.85,SE,130,6.0,7.0,83,0.00,,,0.00,VWS V14.01,2013-09-09 04:02:00,
2013-09-08 23:04:00,70.5,65.1,29.85,SW,231,2.0,8.0,83,0.00,,,0.00,VWS V14.01,2013-09-09 04:04:00,
2013-09-08 23:09:00,70.5,65.1,29.85,SSE,162,1.0,8.0,83,0.00,,,0.00,VWS V14.01,2013-09-09 04:09:00,
2013-09-08 23:14:00,70.4,65.0,29.84,South,177,1.0,8.0,83,0.00,,,0.00,VWS V14.01,2013-09-09 04:14:00,
2013-09-08 23:19:00,70.3,64.9,29.84,WSW,257,3.0,8.0,83,0.00,,,0.00,VWS V14.01,2013-09-09 04:19:00,
2013-09-08 23:24:00,70.3,64.9,29.84,ESE,114,0.0,8.0,83,0.00,,,0.00,VWS V14.01,2013-09-09 04:24:00,
2013-09-08 23:29:00,70.2,64.8,29.84,SE,124,1.0,9.0,83,0.00,,,0.00,VWS V14.01,2013-09-09 04:29:00,
2013-09-08 23:34:00,70.1,65.1,29.84,ESE,103,2.0,7.0,84,0.00,,,0.00,VWS V14.01,2013-09-09 04:34:00,
2013-09-08 23:39:00,70.1,65.1,29.84,North,9,0.0,7.0,84,0.00,,,0.00,VWS V14.01,2013-09-09 04:39:00,
2013-09-08 23:44:00,70.0,64.9,29.84,ESE,112,0.0,8.0,84,0.00,,,0.00,VWS V14.01,2013-09-09 04:44:00,
2013-09-08 23:49:00,69.9,64.8,29.84,ESE,108,2.0,8.0,84,0.00,,,0.00,VWS V14.01,2013-09-09 04:49:00,
2013-09-08 23:55:00,69.8,64.8,29.84,ESE,117,0.0,8.0,84,0.00,,,0.00,VWS V14.01,2013-09-09 04:55:00,